Total_Precipitation_Accumulation
0.16 0.15 0.17 0.15 0.08 0.15 0.27 0.23 0.13 0.05 0.03 0.03 0.03 0.02 0.02 0.04 0.04 0.02 0.01 0.11 0.11 0.11 0.13 0.14 0.17 0.15 0.15 0.14 0.09 0.07 0.06 0.06 0.07 0.06 0.10 0.15 0.15 0.10 0.07 0.05 0.04 0.01 0.01
0.24 0.24 0.26 0.20 0.20 0.25 0.31 0.20 0.09 0.04 0.03 0.01 0.01 0.02 0.04 0.06 0.06 0.04 0.02 0.06 0.10 0.07 0.08 0.10 0.14 0.13 0.17 0.21 0.17 0.12 0.08 0.06 0.05 0.03 0.02 0.05 0.12 0.10 0.09 0.15 0.25 0.08 0.01
0.22 0.28 0.28 0.25 0.30 0.30 0.26 0.17 0.09 0.04 0.02 0.01 0.00 0.00 0.01 0.02 0.01 0.01 0.02 0.02 0.03 0.07 0.09 0.11 0.11 0.09 0.11 0.21 0.24 0.17 0.10 0.07 0.04 0.02 0.01 0.03 0.05 0.06 0.06 0.07 0.13 0.06 0.03
0.11 0.15 0.17 0.18 0.18 0.19 0.20 0.13 0.07 0.04 0.02 0.01 0.01 0.00 0.00 0.01 0.01 0.01 0.01 0.01 0.00 0.04 0.16 0.18 0.16 0.13 0.12 0.19 0.26 0.19 0.09 0.05 0.02 0.01 0.02 0.03 0.05 0.05 0.04 0.04 0.03 0.02 0.01
0.02 0.06 0.08 0.09 0.09 0.11 0.12 0.08 0.05 0.04 0.02 0.02 0.02 0.01 0.01 0.02 0.03 0.02 0.02 0.02 0.01 0.01 0.04 0.09 0.15 0.15 0.14 0.14 0.21 0.25 0.16 0.06 0.02 0.01 0.03 0.06 0.07 0.06 0.05 0.04 0.03 0.01 0.00
0.00 0.01 0.02 0.02 0.01 0.01 0.03 0.04 0.06 0.06 0.04 0.03 0.02 0.02 0.02 0.01 0.02 0.05 0.06 0.03 0.02 0.03 0.03 0.03 0.09 0.13 0.13 0.11 0.12 0.13 0.14 0.12 0.06 0.01 0.01 0.01 0.02 0.01 0.00 0.01 0.01 0.01 0.01
0.00 0.00 0.00 0.00 0.00 0.00 0.00 0.00 0.01 0.02 0.02 0.03 0.03 0.02 0.02 0.02 0.03 0.06 0.06 0.02 0.03 0.10 0.13 0.08 0.08 0.18 0.23 0.16 0.08 0.06 0.08 0.11 0.08 0.04 0.02 0.02 0.01 0.00 0.00 0.00 0.00 0.01 0.01
0.00 0.00 0.00 0.00 0.00 0.00 0.00 0.00 0.00 0.00 0.00 0.00 0.01 0.01 0.00 0.00 0.01 0.03 0.05 0.05 0.06 0.13 0.15 0.12 0.13 0.19 0.18 0.17 0.16 0.08 0.06 0.05 0.05 0.05 0.04 0.03 0.02 0.01 0.00 0.00 0.00 0.00 0.00
0.00 0.00 0.00 0.00 0.00 0.00 0.00 0.00 0.00 0.00 0.00 0.00 0.00 0.00 0.01 0.00 0.00 0.02 0.06 0.08 0.09 0.12 0.09 0.10 0.11 0.12 0.16 0.14 0.12 0.08 0.06 0.04 0.04 0.05 0.05 0.04 0.03 0.02 0.01 0.01 0.01 0.01 0.01
0.00 0.00 0.00 0.00 0.00 0.00 0.00 0.00 0.00 0.01 0.01 0.01 0.00 0.01 0.01 0.01 0.02 0.02 0.05 0.11 0.13 0.12 0.11 0.09 0.07 0.10 0.12 0.11 0.12 0.12 0.09 0.05 0.05 0.05 0.06 0.06 0.04 0.02 0.02 0.05 0.09 0.12 0.07
0.00 0.00 0.00 0.00 0.00 0.00 0.00 0.00 0.00 0.01 0.02 0.02 0.03 0.03 0.03 0.04 0.06 0.07 0.04 0.07 0.12 0.08 0.05 0.04 0.02 0.04 0.05 0.08 0.11 0.13 0.07 0.07 0.08 0.08 0.07 0.06 0.05 0.02 0.02 0.07 0.15 0.23 0.23
0.00 0.00 0.00 0.00 0.00 0.00 0.00 0.00 0.01 0.02 0.03 0.04 0.05 0.06 0.05 0.04 0.04 0.09 0.08 0.08 0.07 0.03 0.04 0.05 0.05 0.05 0.05 0.11 0.14 0.10 0.09 0.08 0.06 0.05 0.04 0.03 0.03 0.03 0.03 0.07 0.12 0.17 0.21
0.00 0.00 0.00 0.00 0.00 0.00 0.00 0.00 0.01 0.02 0.03 0.04 0.05 0.04 0.04 0.04 0.05 0.07 0.06 0.06 0.06 0.06 0.10 0.10 0.10 0.14 0.16 0.28 0.17 0.13 0.10 0.07 0.04 0.02 0.01 0.01 0.01 0.03 0.05 0.07 0.09 0.14 0.20
0.00 0.00 0.00 0.00 0.00 0.00 0.00 0.00 0.01 0.02 0.02 0.03 0.03 0.07 0.11 0.08 0.08 0.06 0.05 0.06 0.08 0.12 0.16 0.15 0.15 0.21 0.32 0.32 0.22 0.09 0.04 0.01 0.00 0.00 0.00 0.00 0.00 0.01 0.03 0.06 0.09 0.13 0.16
0.03 0.01 0.01 0.00 0.00 0.00 0.00 0.01 0.01 0.01 0.01 0.02 0.03 0.08 0.14 0.13 0.13 0.12 0.11 0.13 0.18 0.16 0.21 0.29 0.30 0.28 0.27 0.28 0.16 0.08 0.01 0.00 0.00 0.00 0.00 0.00 0.00 0.00 0.00 0.01 0.03 0.07 0.13
0.11 0.08 0.05 0.02 0.01 0.00 0.00 0.00 0.00 0.01 0.03 0.04 0.07 0.09 0.14 0.18 0.17 0.18 0.20 0.21 0.27 0.25 0.27 0.33 0.36 0.27 0.22 0.17 0.07 0.04 0.01 0.00 0.00 0.00 0.00 0.00 0.00 0.00 0.00 0.00 0.00 0.01 0.03
0.17 0.15 0.12 0.09 0.05 0.03 0.02 0.01 0.01 0.02 0.03 0.03 0.04 0.07 0.12 0.18 0.21 0.22 0.25 0.27 0.28 0.30 0.28 0.25 0.27 0.18 0.14 0.08 0.04 0.02 0.01 0.01 0.01 0.01 0.01 0.00 0.00 0.00 0.00 0.00 0.00 0.00 0.00
0.19 0.18 0.16 0.13 0.09 0.06 0.05 0.02 0.01 0.01 0.02 0.02 0.02 0.05 0.07 0.10 0.13 0.13 0.14 0.20 0.27 0.33 0.30 0.16 0.13 0.12 0.10 0.06 0.03 0.03 0.03 0.02 0.01 0.02 0.02 0.01 0.00 0.00 0.00 0.00 0.00 0.00 0.00
0.13 0.16 0.16 0.14 0.11 0.09 0.07 0.04 0.02 0.01 0.02 0.01 0.03 0.08 0.09 0.11 0.11 0.04 0.02 0.05 0.15 0.28 0.31 0.19 0.11 0.10 0.10 0.06 0.04 0.04 0.04 0.03 0.03 0.02 0.02 0.01 0.01 0.01 0.00 0.00 0.00 0.00 0.00
0.06 0.10 0.13 0.14 0.13 0.11 0.09 0.06 0.04 0.02 0.02 0.02 0.04 0.05 0.06 0.08 0.09 0.05 0.01 0.02 0.07 0.15 0.19 0.18 0.19 0.23 0.19 0.11 0.06 0.04 0.04 0.04 0.02 0.01 0.01 0.00 0.00 0.00 0.00 0.00 0.00 0.00 0.00
0.04 0.08 0.13 0.13 0.12 0.11 0.08 0.07 0.06 0.03 0.02 0.02 0.03 0.04 0.02 0.02 0.02 0.01 0.00 0.01 0.06 0.11 0.18 0.21 0.33 0.55 0.48 0.31 0.15 0.07 0.04 0.03 0.01 0.01 0.01 0.01 0.00 0.00 0.00 0.00 0.00 0.00 0.00
0.02 0.05 0.09 0.12 0.12 0.10 0.09 0.06 0.04 0.04 0.03 0.02 0.03 0.03 0.03 0.01 0.00 0.00 0.00 0.01 0.02 0.06 0.14 0.25 0.38 0.50 0.52 0.44 0.26 0.12 0.04 0.02 0.02 0.03 0.02 0.01 0.01 0.00 0.00 0.00 0.00 0.00 0.00
0.01 0.02 0.05 0.10 0.11 0.13 0.11 0.06 0.04 0.03 0.03 0.03 0.03 0.04 0.03 0.02 0.00 0.00 0.00 0.00 0.01 0.02 0.05 0.11 0.25 0.38 0.41 0.35 0.21 0.08 0.03 0.03 0.02 0.01 0.01 0.01 0.00 0.00 0.00 0.00 0.00 0.00 0.00
0.01 0.01 0.02 0.06 0.10 0.14 0.16 0.12 0.07 0.04 0.03 0.03 0.02 0.01 0.02 0.02 0.01 0.00 0.00 0.00 0.00 0.01 0.03 0.06 0.12 0.18 0.19 0.15 0.09 0.05 0.04 0.03 0.02 0.01 0.01 0.02 0.01 0.00 0.00 0.00 0.00 0.00 0.00
0.02 0.01 0.01 0.03 0.07 0.13 0.17 0.15 0.12 0.07 0.05 0.04 0.02 0.01 0.01 0.01 0.00 0.00 0.00 0.00 0.00 0.01 0.02 0.02 0.03 0.03 0.02 0.02 0.02 0.02 0.01 0.01 0.01 0.01 0.01 0.01 0.01 0.01 0.01 0.01 0.00 0.00 0.00
0.02 0.01 0.01 0.02 0.04 0.13 0.18 0.17 0.15 0.10 0.08 0.07 0.07 0.04 0.01 0.00 0.00 0.00 0.01 0.00 0.00 0.00 0.00 0.00 0.00 0.00 0.00 0.00 0.00 0.00 0.01 0.01 0.00 0.00 0.00 0.00 0.01 0.03 0.04 0.01 0.00 0.00 0.00